{"data":{"norad_id":64836,"epoch":"2026-09-21T20:26:37.345632Z","epoch_age_seconds":54489,"freshness":"FRESH","line1":"1 64836U 25151W   26264.85182113  .00001588  00000+0  23720-3 0  9998","line2":"2 64836  51.9012 135.6903 0001081 103.3593 256.7490 14.79938635 64590","mean_motion":14.79938635,"eccentricity":0.0001081,"inclination_deg":51.9012,"raan_deg":135.6903,"arg_perigee_deg":103.3593,"mean_anomaly_deg":256.749,"bstar":0.0002372,"rev_number":6459,"period_min":97.301331686634,"perigee_km":628.76031344449,"apogee_km":630.2753684211,"semimajor_km":7007.6548409328,"source":"CELESTRAK","updated_at":"2026-09-22T09:00:29.979010Z"}}